0 HST 1 20580U 90037B 25347.18396407 .00010978 00000-0 38148-3 0 9995 2 20580 28.4685 269.4662 0001791 244.6720 115.3690 15.28062026760064 0 ISS (ZARYA) 1 25544U 98067A 25347.89541822 .00011998 00000-0 22109-3 0 9995 2 25544 51.6304 136.7564 0003257 246.2023 113.8624 15.49578000543038 0 CXO 1 25867U 99040B 25349.26321703 .00000427 00000-0 00000-0 0 9990 2 25867 53.0917 122.4070 8132318 310.8570 0.2053 0.37806491 16624